THM YBTH-YSSY

Flight info

Callsign THM
Flight time 0h 37m
Altitude 7000
Route BTH DCT KADOM DCT TESAT
Aircraft BE36/L-BDFGLORY/S

Departure

Time 2026-04-23 07:21
Airport Bathurst Airport (YBTH)

Arrival

Time 2026-04-23 07:59
Airport Sydney Kingsford Smith International Airport (YSSY)
Time Latitude Longitude Altitude Speed Heading
2026-04-23 07:02 -33.41426 149.65269 2431 ft 0 kts 266°
2026-04-23 07:15 -33.41426 149.65283 2432 ft 2 kts 266°
2026-04-23 07:15 -33.41425 149.65285 2429 ft 0 kts 266°
2026-04-23 07:19 -33.41416 149.65276 2427 ft 7 kts
2026-04-23 07:19 -33.41292 149.65266 2427 ft 21 kts 352°
2026-04-23 07:19 -33.41133 149.65256 2421 ft 25 kts 358°
2026-04-23 07:20 -33.40953 149.65237 2415 ft 27 kts 353°
2026-04-23 07:20 -33.40762 149.65224 2409 ft 28 kts 355°
2026-04-23 07:20 -33.40675 149.65225 2409 ft 7 kts 71°
2026-04-23 07:20 -33.40674 149.65239 2409 ft 1 kts 86°
2026-04-23 07:21 -33.40678 149.65397 2411 ft 47 kts 92°
2026-04-23 07:21 -33.40681 149.66008 2471 ft 91 kts 93°
2026-04-23 07:21 -33.40708 149.66796 2793 ft 94 kts 91°
2026-04-23 07:21 -33.40741 149.67519 3257 ft 84 kts 95°
2026-04-23 07:22 -33.40758 149.68213 3663 ft 80 kts 89°
2026-04-23 07:22 -33.40772 149.68857 3958 ft 77 kts 92°
2026-04-23 07:22 -33.40805 149.69491 4203 ft 80 kts 105°
2026-04-23 07:22 -33.41196 149.70031 4388 ft 93 kts 137°
2026-04-23 07:23 -33.41443 149.70684 4618 ft 91 kts 91°
2026-04-23 07:23 -33.41459 149.71393 4935 ft 87 kts 89°
2026-04-23 07:23 -33.41435 149.72087 5251 ft 80 kts 86°
2026-04-23 07:23 -33.41375 149.72723 5553 ft 74 kts 84°
2026-04-23 07:24 -33.41526 149.73242 5752 ft 76 kts 160°
2026-04-23 07:24 -33.42019 149.73352 5938 ft 76 kts 120°
2026-04-23 07:24 -33.42138 149.74012 6079 ft 85 kts 105°
2026-04-23 07:24 -33.42433 149.74648 6298 ft 89 kts 123°
2026-04-23 07:25 -33.42788 149.75304 6501 ft 91 kts 123°
2026-04-23 07:25 -33.43165 149.75918 6747 ft 90 kts 124°
2026-04-23 07:25 -33.43440 149.76559 7002 ft 86 kts 119°
2026-04-23 07:25 -33.43769 149.77256 7036 ft 105 kts 121°
2026-04-23 07:26 -33.44168 149.78099 7040 ft 128 kts 121°
2026-04-23 07:26 -33.44638 149.79081 7037 ft 143 kts 121°
2026-04-23 07:26 -33.45149 149.80147 7033 ft 151 kts 120°
2026-04-23 07:26 -33.45685 149.81260 7030 ft 156 kts 121°
2026-04-23 07:27 -33.46236 149.82394 7029 ft 159 kts 121°
2026-04-23 07:27 -33.46800 149.83545 7026 ft 161 kts 121°
2026-04-23 07:27 -33.47359 149.84711 7029 ft 161 kts 121°
2026-04-23 07:27 -33.47915 149.85874 7032 ft 161 kts 121°
2026-04-23 07:28 -33.48483 149.87035 7030 ft 162 kts 121°
2026-04-23 07:28 -33.49088 149.88173 7035 ft 162 kts 126°
2026-04-23 07:28 -33.49724 149.89258 7028 ft 161 kts 124°
2026-04-23 07:28 -33.50336 149.90391 7030 ft 162 kts 123°
2026-04-23 07:29 -33.50939 149.91533 7028 ft 163 kts 122°
2026-04-23 07:29 -33.51545 149.92679 7027 ft 162 kts 123°
2026-04-23 07:29 -33.52143 149.93819 7029 ft 161 kts 122°
2026-04-23 07:29 -33.52740 149.94951 7027 ft 160 kts 123°
2026-04-23 07:30 -33.53332 149.96075 7024 ft 159 kts 122°
2026-04-23 07:30 -33.53914 149.97187 7031 ft 158 kts 122°
2026-04-23 07:30 -33.54512 149.98319 7028 ft 159 kts 122°
2026-04-23 07:30 -33.55096 149.99428 7026 ft 160 kts 122°
2026-04-23 07:31 -33.55689 150.00555 7030 ft 159 kts 122°
2026-04-23 07:31 -33.56278 150.01676 7027 ft 159 kts 122°
2026-04-23 07:31 -33.56862 150.02795 7024 ft 158 kts 122°
2026-04-23 07:31 -33.57442 150.03899 7029 ft 156 kts 122°
2026-04-23 07:32 -33.58023 150.05002 7027 ft 157 kts 122°
2026-04-23 07:32 -33.58417 150.05753 7028 ft 157 kts 122°
2026-04-23 07:32 -33.59194 150.07232 7033 ft 158 kts 122°
2026-04-23 07:32 -33.59591 150.07989 7033 ft 159 kts 122°
2026-04-23 07:33 -33.60179 150.09111 7047 ft 159 kts 122°
2026-04-23 07:33 -33.60772 150.10243 6982 ft 163 kts 122°
2026-04-23 07:33 -33.61374 150.11390 6989 ft 162 kts 122°
2026-04-23 07:33 -33.61974 150.12536 6986 ft 162 kts 122°
2026-04-23 07:34 -33.62572 150.13678 6985 ft 161 kts 122°
2026-04-23 07:34 -33.63167 150.14814 6981 ft 161 kts 122°
2026-04-23 07:34 -33.63762 150.15949 6981 ft 160 kts 122°
2026-04-23 07:34 -33.64352 150.17080 6980 ft 160 kts 122°
2026-04-23 07:35 -33.64945 150.18213 6981 ft 160 kts 122°
2026-04-23 07:35 -33.65536 150.19341 6982 ft 160 kts 122°
2026-04-23 07:35 -33.66127 150.20472 6990 ft 160 kts 122°
2026-04-23 07:35 -33.66718 150.21604 6980 ft 160 kts 122°
2026-04-23 07:36 -33.67310 150.22737 6983 ft 161 kts 122°
2026-04-23 07:36 -33.67906 150.23876 6987 ft 162 kts 122°
2026-04-23 07:36 -33.68503 150.25011 6986 ft 161 kts 122°
2026-04-23 07:36 -33.69094 150.26152 6984 ft 160 kts 122°
2026-04-23 07:37 -33.69684 150.27290 6992 ft 161 kts 122°
2026-04-23 07:37 -33.70289 150.28442 6975 ft 163 kts 122°
2026-04-23 07:37 -33.70887 150.29589 6974 ft 162 kts 121°
2026-04-23 07:37 -33.71315 150.30828 6973 ft 161 kts 107°
2026-04-23 07:38 -33.71650 150.32112 6972 ft 161 kts 109°
2026-04-23 07:38 -33.71999 150.33390 6978 ft 161 kts 109°
2026-04-23 07:38 -33.72343 150.34671 6978 ft 161 kts 109°
2026-04-23 07:38 -33.72687 150.35963 6977 ft 163 kts 108°
2026-04-23 07:39 -33.73035 150.37264 6960 ft 162 kts 110°
2026-04-23 07:39 -33.73377 150.38532 6986 ft 159 kts 109°
2026-04-23 07:39 -33.73715 150.39805 6978 ft 161 kts 109°
2026-04-23 07:39 -33.74058 150.41087 6981 ft 161 kts 109°
2026-04-23 07:40 -33.74400 150.42370 6985 ft 162 kts 109°
2026-04-23 07:40 -33.74745 150.43664 6986 ft 163 kts 109°
2026-04-23 07:40 -33.75091 150.44960 6980 ft 163 kts 108°
2026-04-23 07:40 -33.75431 150.46238 6975 ft 163 kts 109°
2026-04-23 07:41 -33.75779 150.47532 6976 ft 163 kts 109°
2026-04-23 07:41 -33.76121 150.48824 6979 ft 162 kts 109°
2026-04-23 07:41 -33.76465 150.50112 6972 ft 161 kts 109°
2026-04-23 07:41 -33.76805 150.51396 6990 ft 161 kts 109°
2026-04-23 07:42 -33.77147 150.52680 6986 ft 161 kts 108°
2026-04-23 07:42 -33.77490 150.53965 6978 ft 161 kts 109°
2026-04-23 07:42 -33.77834 150.55265 6982 ft 162 kts 109°
2026-04-23 07:42 -33.78174 150.56540 6983 ft 162 kts 109°
2026-04-23 07:43 -33.78517 150.57832 6983 ft 162 kts 109°
2026-04-23 07:43 -33.78859 150.59122 6978 ft 162 kts 109°
2026-04-23 07:43 -33.79202 150.60412 6978 ft 162 kts 109°
2026-04-23 07:43 -33.79543 150.61703 6978 ft 162 kts 109°
2026-04-23 07:44 -33.79884 150.62993 6987 ft 162 kts 109°
2026-04-23 07:44 -33.80233 150.64303 6983 ft 162 kts 109°
2026-04-23 07:44 -33.80575 150.65596 6988 ft 162 kts 109°
2026-04-23 07:44 -33.80915 150.66884 6984 ft 162 kts 109°
2026-04-23 07:45 -33.81257 150.68174 6982 ft 162 kts 109°
2026-04-23 07:45 -33.81587 150.69463 6991 ft 161 kts 103°
2026-04-23 07:45 -33.81529 150.70816 6974 ft 164 kts 82°
2026-04-23 07:45 -33.81331 150.72166 6977 ft 164 kts 82°
2026-04-23 07:46 -33.81136 150.73519 6978 ft 164 kts 82°
2026-04-23 07:46 -33.80940 150.74850 6976 ft 164 kts 82°
2026-04-23 07:46 -33.80737 150.76248 6804 ft 171 kts 83°
2026-04-23 07:46 -33.80543 150.77603 6580 ft 164 kts 82°
2026-04-23 07:47 -33.80347 150.78936 6352 ft 161 kts 82°
2026-04-23 07:47 -33.80152 150.80249 6116 ft 158 kts 83°
2026-04-23 07:47 -33.79959 150.81539 5983 ft 152 kts 83°
2026-04-23 07:47 -33.79773 150.82747 5971 ft 143 kts 81°
2026-04-23 07:48 -33.79595 150.83894 5970 ft 137 kts 83°
2026-04-23 07:48 -33.79417 150.85008 5971 ft 134 kts 83°
2026-04-23 07:48 -33.79243 150.86104 5918 ft 135 kts 83°
2026-04-23 07:48 -33.79064 150.87231 5818 ft 140 kts 82°
2026-04-23 07:49 -33.78881 150.88407 5725 ft 146 kts 83°
2026-04-23 07:49 -33.78695 150.89618 5634 ft 149 kts 83°
2026-04-23 07:49 -33.78506 150.90853 5539 ft 151 kts 83°
2026-04-23 07:49 -33.78316 150.92092 5443 ft 151 kts 82°
2026-04-23 07:50 -33.78126 150.93336 5334 ft 152 kts 83°
2026-04-23 07:50 -33.77931 150.94593 5209 ft 154 kts 82°
2026-04-23 07:50 -33.77732 150.95861 5087 ft 155 kts 83°
2026-04-23 07:50 -33.77531 150.97142 4959 ft 156 kts 82°
2026-04-23 07:51 -33.77328 150.98428 4835 ft 157 kts 82°
2026-04-23 07:51 -33.77126 150.99725 4651 ft 160 kts 83°
2026-04-23 07:51 -33.76919 151.01060 4383 ft 164 kts 82°
2026-04-23 07:51 -33.76711 151.02415 4141 ft 165 kts 82°
2026-04-23 07:52 -33.76505 151.03776 3895 ft 166 kts 83°
2026-04-23 07:52 -33.76293 151.05136 3646 ft 164 kts 83°
2026-04-23 07:52 -33.76083 151.06473 3396 ft 162 kts 83°
2026-04-23 07:52 -33.75870 151.07792 3141 ft 160 kts 83°
2026-04-23 07:53 -33.75663 151.09088 2985 ft 152 kts 83°
2026-04-23 07:53 -33.75574 151.10288 2968 ft 139 kts 106°
2026-04-23 07:53 -33.76093 151.11195 2971 ft 131 kts 137°
2026-04-23 07:53 -33.76799 151.11872 2972 ft 129 kts 142°
2026-04-23 07:54 -33.77513 151.12505 2976 ft 126 kts 142°
2026-04-23 07:54 -33.78214 151.13134 2966 ft 126 kts 144°
2026-04-23 07:54 -33.79052 151.13533 2823 ft 134 kts 162°
2026-04-23 07:54 -33.79969 151.13829 2646 ft 140 kts 164°
2026-04-23 07:55 -33.80928 151.14097 2457 ft 144 kts 164°
2026-04-23 07:55 -33.81900 151.14359 2265 ft 139 kts 165°
2026-04-23 07:55 -33.82810 151.14585 2078 ft 127 kts 165°
2026-04-23 07:55 -33.83633 151.14795 1912 ft 115 kts 166°
2026-04-23 07:56 -33.84410 151.14995 1764 ft 114 kts 165°
2026-04-23 07:56 -33.85187 151.15194 1606 ft 113 kts 166°
2026-04-23 07:56 -33.85945 151.15388 1465 ft 111 kts 165°
2026-04-23 07:56 -33.86702 151.15582 1315 ft 111 kts 165°
2026-04-23 07:57 -33.87448 151.15774 1174 ft 109 kts 163°
2026-04-23 07:57 -33.88187 151.15961 1029 ft 108 kts 165°
2026-04-23 07:57 -33.88919 151.16148 880 ft 109 kts 166°
2026-04-23 07:57 -33.89652 151.16336 731 ft 109 kts 166°
2026-04-23 07:58 -33.90399 151.16526 585 ft 111 kts 169°
2026-04-23 07:58 -33.91143 151.16713 440 ft 106 kts 167°
2026-04-23 07:58 -33.91823 151.16882 287 ft 83 kts 168°
2026-04-23 07:58 -33.92309 151.17007 193 ft 66 kts 167°
2026-04-23 07:59 -33.92719 151.17111 94 ft 53 kts 165°
2026-04-23 07:59 -33.93087 151.17210 14 ft 45 kts 172°
2026-04-23 07:59 -33.93269 151.17257 15 ft 19 kts 169°
2026-04-23 07:59 -33.93373 151.17286 12 ft 20 kts 173°
2026-04-23 08:00 -33.93408 151.17358 12 ft 11 kts 67°
2026-04-23 08:00 -33.93393 151.17441 14 ft 0 kts 76°
2026-04-23 08:01 -33.93423 151.17504 16 ft 10 kts 188°
2026-04-23 08:01 -33.93499 151.17509 14 ft 12 kts 166°
2026-04-23 08:01 -33.93579 151.17535 12 ft 13 kts 167°
2026-04-23 08:01 -33.93672 151.17555 12 ft 13 kts 172°
2026-04-23 08:02 -33.93753 151.17573 12 ft 11 kts 168°
2026-04-23 08:02 -33.93821 151.17590 13 ft 10 kts 168°
2026-04-23 08:02 -33.93873 151.17638 13 ft 11 kts 94°
2026-04-23 08:02 -33.93846 151.17769 15 ft 20 kts 71°
2026-04-23 08:03 -33.93810 151.17908 21 ft 14 kts 74°
2026-04-23 08:03 -33.93785 151.18025 25 ft 16 kts 83°
2026-04-23 08:03 -33.93751 151.18159 26 ft 17 kts 76°
2026-04-23 08:03 -33.93716 151.18310 25 ft 18 kts 73°
2026-04-23 08:04 -33.93662 151.18389 25 ft 15 kts
2026-04-23 08:04 -33.93602 151.18410 26 ft 0 kts 13°